Theta_e
314 313 318 326 346 345 348 345 351 352 356 356 352 349 348 348 349 351 350 345 346 345 342 341 342 342 338 334 335 339 343 344 347 347 345 344 345 347 347 348 347 343 346 346
313 314 314 318 329 335 347 346 351 349 355 356 355 354 347 349 347 348 350 349 345 345 345 345 345 343 341 339 338 339 343 343 346 345 341 345 347 347 346 345 348 344 345 348
314 315 317 317 321 346 346 347 348 347 352 353 354 353 354 350 348 345 348 348 348 344 344 345 346 345 345 343 342 343 342 345 344 346 343 346 345 346 346 340 344 348 348 349
314 315 317 316 317 327 344 345 346 355 355 352 351 353 351 350 351 349 346 346 348 348 342 340 346 347 347 346 345 345 346 345 345 346 346 346 346 346 347 347 347 347 350 349
322 323 319 318 317 328 335 342 345 354 350 353 356 354 348 348 351 350 347 344 346 347 346 339 343 346 347 347 347 346 346 347 346 347 347 348 347 346 345 348 348 348 349 350
321 321 321 320 322 329 338 336 336 337 345 348 346 354 347 351 349 348 346 344 344 347 347 344 341 344 345 344 344 346 346 347 347 347 346 346 346 346 346 347 348 349 347 348
320 322 321 322 322 320 324 318 325 347 347 347 341 355 349 351 352 351 349 344 343 345 346 345 343 341 341 341 344 348 348 347 348 350 349 348 347 346 346 345 349 349 347 348
321 322 322 321 320 319 319 317 320 328 328 328 341 346 349 345 347 351 350 346 342 344 345 346 343 344 342 341 344 347 348 348 348 346 349 347 348 347 347 347 349 349 348 348
319 320 319 319 319 318 318 317 316 317 324 327 335 351 347 346 342 345 348 345 344 344 345 345 344 344 345 343 343 344 345 347 346 346 346 349 348 348 347 346 348 348 348 347
319 320 319 319 319 317 317 315 316 318 332 339 343 349 347 340 344 343 342 347 345 343 343 344 344 344 345 346 344 344 344 344 345 346 346 349 349 347 347 346 348 347 346 345
316 316 319 327 329 324 330 332 323 325 330 334 340 341 340 339 338 341 340 344 348 342 343 343 345 345 345 347 347 346 347 347 346 346 347 350 349 347 347 348 346 347 347 346
321 317 324 332 331 329 331 333 328 333 339 334 334 339 337 340 339 340 340 346 348 341 342 343 345 344 344 345 348 348 349 350 349 348 349 348 348 348 347 347 346 347 347 347
320 317 322 329 325 327 331 331 328 327 328 336 338 336 334 338 338 343 348 349 347 343 347 346 346 345 344 344 346 348 350 350 349 349 349 348 347 348 349 348 346 347 347 346
326 321 322 323 325 328 333 331 330 328 333 333 335 336 338 342 350 348 347 344 347 348 347 346 346 346 343 343 344 347 347 347 347 346 346 347 347 345 349 349 348 348 348 348
319 331 330 329 331 331 332 333 331 330 329 338 331 336 336 339 345 345 346 344 347 350 348 345 345 344 343 341 341 344 345 344 343 344 344 346 347 347 348 349 348 349 348 347
320 330 331 335 334 333 334 332 333 333 333 333 333 335 336 336 342 342 344 341 344 345 346 346 344 344 343 343 340 341 341 338 340 342 342 343 344 343 342 343 346 347 346 349
323 328 326 330 334 333 328 329 334 335 334 333 336 333 339 335 337 342 342 344 341 343 344 344 344 343 343 343 340 341 341 339 338 338 338 341 345 343 339 345 346 346 347 346
319 323 323 327 331 334 324 330 334 334 337 334 335 337 339 339 338 340 339 340 342 343 343 343 343 343 343 343 342 340 339 338 338 342 342 342 342 342 342 341 345 344 344 344
313 325 329 330 330 328 332 334 334 336 333 334 336 340 339 343 342 344 340 340 341 341 342 341 342 341 342 342 343 342 339 339 341 343 342 342 342 343 342 339 344 343 342 342
319 318 325 326 331 334 329 332 332 331 335 333 338 340 342 344 344 348 340 339 340 340 338 337 339 339 339 340 343 342 341 341 340 339 339 341 342 341 342 340 342 342 341 339
322 323 324 328 328 329 329 333 331 337 334 337 336 336 336 337 337 340 337 338 337 337 336 336 336 335 337 338 341 341 342 339 339 339 340 341 342 342 343 342 341 340 336 333
321 324 326 326 331 333 331 334 336 331 331 334 333 333 332 335 339 340 337 336 336 335 334 334 333 333 334 336 338 336 337 340 340 339 338 339 339 338 338 338 335 335 332 329
322 321 324 324 326 325 327 330 328 327 330 332 331 332 333 335 336 339 337 334 334 335 334 333 332 332 334 335 337 335 335 337 337 337 336 335 335 335 335 334 332 331 330 328
324 320 321 324 324 324 326 328 329 329 330 331 332 330 329 329 337 336 334 333 334 334 333 333 332 332 332 334 334 334 335 335 334 334 333 333 333 331 331 331 330 329 329 328
323 319 322 323 327 328 328 329 329 331 331 328 333 334 331 333 336 334 332 330 333 333 333 333 332 332 332 333 333 333 333 333 332 331 330 329 327 327 325 325 324 323 321 325
319 318 322 328 325 326 326 328 328 331 331 328 332 336 336 335 333 332 330 332 333 332 331 331 331 331 331 332 331 332 331 331 330 328 326 325 322 318 316 314 312 313 312 312
Wind_Speed
3 4 6 10 8 5 4 4 3 2 7 5 7 4 7 5 3 7 5 16 16 16 22 23 22 27 25 27 24 23 22 18 14 13 10 8 7 4 10 9 8 6 4 3
5 3 9 7 5 6 5 3 2 1 9 5 6 9 8 6 5 6 7 6 15 14 14 18 19 24 29 29 28 25 24 21 18 15 11 9 9 8 9 9 9 6 5 3
5 7 3 7 6 4 4 6 4 4 5 3 3 4 4 5 4 5 6 5 5 9 16 16 20 24 26 31 32 30 27 23 21 18 12 7 6 5 8 10 10 7 5 3
6 5 6 5 5 9 5 12 7 6 5 3 5 3 4 4 7 6 8 7 6 7 7 11 22 22 26 32 33 32 30 25 22 19 14 10 11 10 11 10 10 8 7 4
7 3 4 4 7 9 11 9 13 5 4 2 1 2 5 2 7 8 9 9 9 8 9 11 22 28 30 28 33 35 31 28 25 21 17 14 11 11 6 12 11 11 10 8
7 4 4 7 3 6 5 8 7 6 3 2 6 5 4 3 5 4 9 13 13 11 8 7 18 25 25 24 25 31 32 32 27 21 20 14 14 10 8 9 12 12 11 9
5 4 4 4 1 3 7 6 3 3 1 6 2 5 7 5 6 5 6 11 14 13 9 10 10 20 23 28 29 31 33 34 29 23 21 18 13 14 11 11 15 17 13 12
2 7 2 2 9 7 5 8 6 6 4 5 1 4 4 4 6 3 7 9 12 14 13 13 15 17 26 28 31 31 31 35 31 27 24 21 18 15 13 12 11 15 15 14
3 5 4 3 3 8 3 4 4 6 3 3 2 4 6 4 3 1 3 1 11 15 15 14 14 18 21 23 33 35 36 34 33 29 26 24 21 19 16 13 13 13 15 13
4 3 3 6 2 5 4 4 3 4 3 2 3 4 4 1 2 6 7 5 5 8 9 11 15 25 25 34 36 36 37 37 33 29 28 28 25 22 18 15 14 16 12 10
4 3 6 5 6 3 5 4 6 5 3 4 1 5 5 5 4 5 6 7 9 8 12 10 13 23 31 26 27 29 32 32 31 31 28 28 27 24 21 17 15 14 15 15
2 5 4 1 3 5 5 3 4 4 3 1 2 5 2 5 6 5 7 8 10 5 8 9 12 19 22 21 20 24 29 27 26 28 29 29 25 23 23 21 19 15 14 14
5 3 4 6 7 4 5 1 3 4 3 5 5 5 2 3 4 4 5 5 4 1 5 7 11 15 18 21 23 25 26 22 19 18 23 23 24 24 24 23 21 19 17 16
9 3 5 6 5 3 2 3 0 4 3 4 6 4 3 3 2 4 3 4 3 4 4 4 8 11 17 20 17 18 22 23 22 14 16 20 24 24 25 25 22 22 22 21
5 4 3 4 3 4 4 4 6 5 4 6 3 6 5 1 3 5 3 2 3 5 6 7 8 8 12 13 15 13 15 15 19 20 12 9 16 18 21 25 25 23 20 20
3 3 2 2 3 2 3 5 6 5 2 5 5 6 2 2 3 6 1 2 4 2 4 6 8 11 13 16 20 20 20 16 18 18 15 17 8 5 5 9 20 24 22 20
4 7 4 4 3 5 5 5 4 3 4 5 5 7 2 3 4 2 3 2 5 4 4 5 8 11 13 18 21 20 22 18 13 11 12 18 15 6 5 2 7 16 15 13
6 5 3 2 3 2 5 4 5 6 5 5 1 3 4 4 5 3 1 1 3 4 3 6 9 9 9 13 18 17 17 15 15 10 13 9 10 8 10 7 4 9 10 10
2 6 3 5 4 4 2 4 4 4 7 8 6 2 3 6 5 2 3 2 7 6 5 8 12 8 6 7 12 18 19 10 8 8 8 5 6 7 11 16 12 8 9 9
6 7 4 3 3 6 6 4 5 5 6 6 7 6 5 6 6 3 4 7 10 11 12 14 13 5 8 5 7 10 13 16 16 11 6 5 5 7 8 13 16 13 10 12
4 4 4 2 2 5 6 4 5 4 6 6 7 7 7 5 4 5 5 7 14 13 17 16 15 11 9 8 16 17 13 6 7 8 8 7 9 9 12 14 15 15 15 15
6 6 2 3 1 6 5 2 6 5 1 4 4 5 5 3 7 8 7 6 11 12 13 14 13 11 11 15 21 20 17 12 11 13 16 17 16 15 15 17 16 15 17 17
2 6 5 7 6 5 1 3 3 4 3 5 5 4 7 7 6 8 9 8 9 13 13 14 13 14 13 15 18 19 15 17 16 17 18 18 18 17 14 14 14 14 14 17
1 3 4 2 4 6 1 4 4 3 3 5 4 6 5 8 7 9 8 7 10 12 12 13 12 12 14 14 16 16 16 17 18 17 18 16 17 17 16 15 14 13 12 12
5 6 6 2 4 4 4 5 4 3 6 7 4 4 5 6 6 7 6 6 13 13 15 15 13 11 13 14 13 14 16 18 19 19 19 18 17 17 17 17 14 13 11 8
4 7 5 5 8 7 6 6 6 7 8 9 8 7 5 6 7 6 6 13 14 15 14 14 15 15 13 12 12 12 12 14 16 18 16 16 16 16 18 19 18 15 13 10
Wind_Direction
5 91 193 193 211 234 165 193 194 139 171 166 197 228 223 194 210 156 161 185 182 196 205 204 205 199 203 210 213 201 198 196 203 200 209 200 210 216 192 198 207 212 230 259
23 232 223 190 203 245 224 234 247 183 170 168 174 222 230 176 214 182 173 181 175 192 189 199 200 198 198 207 212 213 207 199 201 203 205 193 203 218 205 224 211 228 238 275
162 235 127 176 179 181 218 215 176 184 163 214 128 295 187 235 190 207 193 186 172 177 188 185 189 195 195 207 213 211 208 206 196 206 197 180 194 214 191 199 222 229 238 313
221 253 216 223 204 193 205 211 206 159 131 229 150 276 267 216 226 197 220 190 194 192 152 189 188 190 196 206 214 213 210 204 203 205 214 206 205 205 212 208 221 230 221 247
257 276 179 189 223 157 227 171 200 119 93 331 277 85 268 109 239 218 204 220 187 208 175 179 190 195 201 200 212 210 213 208 205 202 204 207 218 219 229 222 225 228 221 227
240 243 209 208 157 175 85 80 47 53 69 346 235 156 276 215 232 248 206 206 197 194 173 163 192 198 193 196 204 211 213 213 206 203 205 214 224 218 218 223 228 238 237 227
322 273 290 196 18 67 75 70 27 13 28 227 111 120 244 246 244 236 276 224 201 188 168 174 183 190 181 177 192 202 202 201 205 205 211 211 215 225 225 251 235 216 229 233
76 331 285 273 187 166 171 152 154 184 189 235 113 224 251 223 291 252 263 250 189 180 183 185 183 184 181 183 189 192 202 199 208 214 212 212 213 212 224 249 224 224 222 236
146 278 306 225 165 125 198 186 180 105 5 76 249 295 296 248 169 215 321 5 191 188 185 181 172 184 168 194 197 196 204 207 209 219 216 213 213 210 221 230 221 225 240 245
191 310 341 297 28 27 112 150 49 8 144 251 309 289 243 275 346 328 338 340 219 207 208 188 170 182 187 205 204 201 206 209 212 217 219 219 218 218 218 218 222 226 234 234
132 115 309 36 3 284 17 23 56 110 106 159 212 263 222 222 224 256 299 292 290 211 200 182 185 173 183 198 201 197 208 210 213 217 222 221 223 222 219 218 211 219 229 238
334 123 78 105 322 18 87 100 108 117 227 58 142 269 273 245 247 240 274 291 290 201 190 185 165 160 166 174 185 210 213 210 216 221 224 223 229 225 221 220 219 215 223 229
188 34 88 352 333 353 60 58 116 104 72 197 147 258 158 350 274 258 256 309 3 128 129 145 149 151 149 166 188 194 196 195 197 207 227 228 231 230 229 228 227 229 232 230
88 101 149 184 203 162 194 237 136 127 129 183 226 267 264 25 14 288 326 16 85 95 124 138 125 139 143 158 168 178 172 170 180 194 219 224 227 235 236 235 232 233 236 235
99 142 171 204 192 185 225 196 197 189 201 175 285 218 267 298 326 308 312 95 86 127 113 128 144 129 136 148 159 173 180 173 175 177 174 205 221 230 235 237 236 232 230 231
23 165 103 164 294 54 274 259 204 222 207 256 255 284 81 20 355 6 22 104 109 146 137 127 134 139 161 169 172 175 180 176 179 182 183 203 179 179 206 245 234 226 227 225
122 135 118 247 16 337 324 264 204 221 205 185 211 217 176 94 64 350 317 272 169 171 134 167 165 174 197 189 178 185 196 195 183 184 194 186 178 186 204 263 227 209 194 168
131 101 90 181 31 241 238 263 237 217 234 211 286 216 183 163 149 161 149 222 33 19 320 91 114 136 183 195 189 185 188 190 197 208 191 195 193 203 222 218 166 140 141 135
95 126 102 144 187 274 279 211 165 179 277 188 203 176 142 131 122 85 128 103 100 80 43 66 88 125 135 167 191 187 183 178 203 204 195 211 225 230 232 220 206 163 148 138
74 77 106 131 166 204 233 303 196 128 284 166 148 160 166 158 171 169 159 111 92 90 91 84 91 78 79 68 134 142 144 174 172 168 196 221 197 177 190 202 200 180 173 151
34 18 115 142 195 285 239 277 162 109 248 177 169 171 162 178 195 142 128 96 93 89 92 103 102 94 93 94 127 131 156 70 92 132 163 184 188 175 172 171 165 160 145 134
156 126 177 90 88 275 159 77 165 205 213 184 158 174 155 110 129 114 114 100 98 90 85 88 86 91 97 112 124 111 115 126 116 103 107 120 121 124 132 136 133 138 137 126
94 173 178 165 216 248 112 257 290 116 142 169 177 161 162 121 98 114 110 106 113 109 110 111 102 96 92 102 114 107 119 127 119 112 104 99 105 110 113 116 120 124 129 129
114 161 107 119 258 243 263 294 280 126 144 140 142 123 120 122 140 137 128 136 124 118 114 116 116 108 112 117 120 125 129 127 122 112 110 110 112 109 109 109 113 117 121 125
187 138 147 260 314 354 286 214 234 131 121 107 95 132 145 145 141 139 140 124 125 127 132 138 131 128 127 129 124 128 128 127 121 121 117 115 113 112 110 109 108 108 104 119
182 166 147 213 202 170 232 198 159 171 164 137 149 149 180 156 136 124 132 136 137 135 139 136 138 137 139 135 126 129 128 132 132 124 122 123 123 121 119 116 107 104 101 105